User: anonymous   Login
Location: Newark
(44.3681°N, 100.3364°W)
Time: 08:46:57
(UTC+00:00)
Language:

S-56A Canister/Altair - Orbit

View from above orbital plane
View from above orbital plane
View from above satellite
View from above satellite

Ground track
Ground track

The orbit data is extracted from the following two-line orbital elements,

1    82U 61004B   20222.84850282 -.00000038 +00000-0 +85390-5 0  9998
2    82 038.8612 000.6792 1174550 341.2612 014.8080 12.26061815814361
Epoch (UTC): 09 August 2020 20:21:50
Eccentricity: 0.1174550
inclination: 38.8612°
perigee height: 633 km
apogee height: 2499 km
right ascension of ascending node: 0.6792°
argument of perigee: 341.2612°
revolutions per day: 12.26061815
mean anomaly at epoch: 14.8080°
orbit number at epoch: 81436

The dashed part of the orbit path shows where the satellite is in the earth's shadow,  

DLR